Regional Weather Roundup
Issued by NWS

Home | Current Version | Previous Version | Graphics & Text | Print | Product List | Glossary On
Versions: 1 2 3 4 5 6 7 8 9 10 11 12 13 14 15 16 17 18 19 20 21 22 23 24 25 26 27 28 29 30 31 32 33 34 35 36 37 38 39 40 41 42 43 44 45 46 47 48 49 50
000
ASUS45 KBOU 291507
RWRCO

WEATHER ROUNDUP FOR COLORADO
NATIONAL WEATHER SERVICE DENVER/BOULDER CO
900 AM MDT SAT AUG 29 2015

NOTE: "FAIR" INDICATES FEW OR NO CLOUDS BELOW 12000 FEET WITH NO
SIGNIFICANT WEATHER AND/OR OBSTRUCTIONS TO VISIBILITY.

COZ001>005-013-030-031-291600-
...NORTHWEST COLORADO...

CITY           SKY/WX    TMP DP  RH WIND       PRES   REMARKS
CRAIG          SUNNY     59  48  67 CALM      30.33F
HAYDEN         NOT AVBL
MEEKER         SUNNY     59  41  51 CALM      30.34S
MOUNT WERNER   NOT AVBL
STEAMBOAT SPGS SUNNY     52  43  70 CALM      30.38F
WALDEN         SUNNY     50  41  71 CALM      30.47S
$$

COZ006>008-011-291600-
...WEST CENTRAL VALLEYS...

CITY           SKY/WX    TMP DP  RH WIND       PRES   REMARKS
GRAND JUNCTION SUNNY     69  47  45 SE10      30.23S
MONTROSE       SUNNY     64  45  49 S3        30.32S
EAGLE          SUNNY     55  43  62 CALM      30.44S
RIFLE          SUNNY     61  47  59 CALM      30.31S
DELTA          RAIN      63  53  69 CALM      30.29R
NUCLA          SUNNY     63  43  48 CALM      30.35S
$$

COZ017>023-064>068-291600-
...SOUTHWEST COLORADO...

CITY           SKY/WX    TMP DP  RH WIND       PRES   REMARKS
DURANGO        SUNNY     64  47  53 CALM      30.40R
CORTEZ         SUNNY     72  50  45 N3        30.31R
PAGOSA SPRINGS PTSUNNY   62  43  48 CALM      30.47S
TELLURIDE      SUNNY     63  43  48 CALM      30.55S
WOLF CREEK PAS SUNNY     48  37  66 SW10      30.76S
$$

COZ009-010-012-014-032>034-037-058>063-291600-
...CENTRAL COLORADO...

CITY           SKY/WX    TMP DP  RH WIND       PRES   REMARKS
ASPEN          SUNNY     57  44  62 N6        30.44S
BUENA VISTA    SUNNY     57  42  57 N3        30.49F
COPPER MTN     SUNNY     55  36  47 S9        30.73S
BERTHOUD PASS  FAIR      43  32  65 W6        30.76F
COTTONWOOD PAS SUNNY     59  41  51 E3        30.60F
GUNNISON       SUNNY     52  43  71 CALM      30.50F
KREMMLING      SUNNY     50  43  76 CALM      30.49S
LEADVILLE      SUNNY     51  38  60 CALM      30.59S
MONARCH PASS   SUNNY     46  37  71 S10       30.84R
SALIDA         SUNNY     58  43  56 NW5       30.54F
SUNLIGHT       SUNNY     55  39  54 CALM      30.66S
WILKERSON PASS SUNNY     50  37  62 SW3       30.71S
$$

COZ069>075-291600-
...SAN LUIS VALLEY/SANGRE DE CRISTO MOUNTAINS...

CITY           SKY/WX    TMP DP  RH WIND       PRES   REMARKS
ALAMOSA        SUNNY     59  44  57 CALM      30.47R
LA VETA PASS   SUNNY     55  39  54 CALM      30.63S
SAGUACHE       SUNNY     59  43  55 NW8       30.49R
$$

COZ035-036-038>040-291600-
...NORTHERN COLORADO FRONT RANGE...

CITY           SKY/WX    TMP DP  RH WIND       PRES   REMARKS
DENVER INTL AP SUNNY     72  44  36 SW8       30.27S
DMNS CITY PARK   N/A     70  48  46 SE8       30.26F
AURORA         MOSUNNY   71  46  39 S10       30.29S
FRONT RANGE AP SUNNY     72  43  35 S9        30.28S
ERIE MUNI ARPT SUNNY     67  46  47 CALM      30.25F
BOULDER MUN AP SUNNY     68  45  42 NE3       30.25F
CENTENNIAL     SUNNY     72  47  40 SE3       30.30F
BROOMFIELD     NOT AVBL
FORT COLLINS   SUNNY     64  46  52 N3        30.26F
LONGMONT       SUNNY     69  49  50 CALM      30.26F
$$

COZ041-046-047-076>085-087-088-291600-
...PIKES PEAK/PALMER DIVIDE AND SOUTHERN FOOTHILLS...

CITY           SKY/WX    TMP DP  RH WIND       PRES   REMARKS
COLO. SPRINGS  SUNNY     68  43  40 S3        30.37R
A. F. ACADEMY  SUNNY     64  45  48 CALM      30.38R
ELLICOTT       SUNNY    N/A N/A N/A S6        30.35R
FALCON         SUNNY     67  44  43 MISG      30.41S
FORT CARSON    SUNNY     66  47  50 N5        30.34S
LIMON          SUNNY     66  52  60 CALM      30.31S
MONUMENT HILL  SUNNY     68  41  37 S8        30.40S
TRINIDAD       SUNNY     71  47  42 W7        30.34R
$$

COZ042>045-048>051-090-091-291600-
...NORTHEAST COLORADO...

CITY           SKY/WX    TMP DP  RH WIND       PRES   REMARKS
GREELEY ARPT   SUNNY     59  50  72 NW5       30.26S
AKRON          SUNNY     72  46  39 W10       30.25R
BURLINGTON     SUNNY     71  58  63 W8        30.25R
WRAY           SUNNY     69  52  55 SW5       30.21S
STERLING       SUNNY     61  50  67 S7        30.20F
HOLYOKE        SUNNY     68  54  60 W5        30.20S
FORT MORGAN    SUNNY     61  46  58 W5        30.24S
$$

COZ086-089-092>099-291600-
...SOUTHEAST COLORADO...

CITY           SKY/WX    TMP DP  RH WIND       PRES   REMARKS
PUEBLO         SUNNY     69  48  47 CALM      30.28R
LA JUNTA       SUNNY     68  50  52 SW5       30.26S
LAMAR          SUNNY     66  58  75 NW3       30.22S
SPRINGFIELD    NOT AVBL
$$



USA.gov is the U.S. government's official web portal to all federal, state and local government web resources and services.